(346103) = 2007 VW63

Discovered at Kitt Peak on 2007-11-01 by Spacewatch.

Orbit

Orbit type: Main Belt

Note: WebGL enabled browser required.

epoch2023-02-25.0
epoch JD2460000.5
perihelion date2021-03-26.55603
perihelion JD2459300.05603
argument of perihelion (°)318.98222
ascending node (°)66.98273
inclination (°)14.15487
eccentricity0.1549893
perihelion distance (AU)2.3316514
Tisserand w.r.t. Jupiter3.3
ΔV w.r.t. Earth (km/sec)10.5
semimajor axis (AU)2.7593160
mean anomaly (°)150.61738
mean daily motion (°/day)0.21503130
aphelion distance (AU)3.187
period (years)4.58
P-vector [x]0.88072223
P-vector [y]0.47268173
P-vector [z]0.03000562
Q-vector [x]-0.41673693
Q-vector [y]0.74326143
Q-vector [z]0.52334766
absolute magnitude16.14
phase slope0.15
uncertainty0
referenceMPO 745323
observations used378
oppositions11
arc length (days)5685
first opposition used2007
last opposition used2023
residual rms (arc-secs)0.73
perturbers coarse indicatorM-v
perturbers precise indicator003Ek
first observation date used2007-10-20.0
last observation date used2023-05-14.0
computer nameMPCLINUX
JD of orbit computation2456847.869327
perihelion JD uncertainty (days)1.8544E-04
argument of perihelion uncertainty (°)3.9367E-05
ascending node uncertainty (°)2.2974E-05
inclination uncertainty (°)6.9609E-06
eccentricity uncertainty 6.2576E-08
perihelion distance uncertainty (AU)1.8860E-07
Minimum Orbit Intersection Distances (in AU)
for orbit epoch: 2460000.5, reference: E2023-JF5
Mercury1.99755
Venus1.61385
Earth1.35522
Mars0.89056
Jupiter2.2719
Saturn6.4426
Uranus15.4069
Neptune27.5303

Observations

378 total observations over interval: 2007 10 20.45977 – 2023 05 14.396972
These data are available for download (format description).

Date (UT) J2000 RA J2000 Dec Magn Location Ref
2007 10 20.45977 05 09 07.16 +19 52 58.7 19.4 V G96 – Mt. Lemmon Survey MPS 231846
2007 10 20.46626 05 09 07.12 +19 53 00.7 19.5 V G96 – Mt. Lemmon Survey MPS 231846
2007 10 20.47274 05 09 07.09 +19 53 02.6 19.6 V G96 – Mt. Lemmon Survey MPS 231846
2007 10 20.47924 05 09 07.05 +19 53 04.7 19.7 V G96 – Mt. Lemmon Survey MPS 231846
2007 11 01.37976 05 05 37.09 +20 54 15.2   691 – Steward Observatory, Kitt Peak-Spacewatch MPS 225233
2007 11 01.39741 05 05 36.53 +20 54 20.7   691 – Steward Observatory, Kitt Peak-Spacewatch MPS 225233
2007 11 01.41507 05 05 35.96 +20 54 26.3   691 – Steward Observatory, Kitt Peak-Spacewatch MPS 225233
2007 11 05.31813 05 03 25.22 +21 15 15.3 19.5   704 – Lincoln Laboratory ETS, New Mexico MPS 225233
2007 11 05.33026 05 03 24.68 +21 15 19.1 20.2   704 – Lincoln Laboratory ETS, New Mexico MPS 225233
2007 11 05.35449 05 03 23.72 +21 15 27.3 20.1   704 – Lincoln Laboratory ETS, New Mexico MPS 225233
2007 11 05.36662 05 03 23.24 +21 15 30.8 19.9   704 – Lincoln Laboratory ETS, New Mexico MPS 225233
2007 11 05.36988 05 03 23.20 +21 15 32.0 19.6 V 691 – Steward Observatory, Kitt Peak-Spacewatch MPS 225233
2007 11 05.38264 05 03 22.69 +21 15 36.1 19.5 V 691 – Steward Observatory, Kitt Peak-Spacewatch MPS 225233
2007 11 05.39540 05 03 22.19 +21 15 40.3 19.5 V 691 – Steward Observatory, Kitt Peak-Spacewatch MPS 225233
2007 11 09.32308 05 00 40.77 +21 36 50.4 19.2 V 691 – Steward Observatory, Kitt Peak-Spacewatch MPS 231846
2007 11 09.33835 05 00 40.07 +21 36 53.8 19.7 V 691 – Steward Observatory, Kitt Peak-Spacewatch MPS 231846
2007 11 09.35363 05 00 39.36 +21 36 58.8 20.0 V 691 – Steward Observatory, Kitt Peak-Spacewatch MPS 231846
2007 12 04.21694 04 35 42.97 +23 44 32.3 18.4 V 703 – Catalina Sky Survey MPS 231846
2007 12 04.22403 04 35 42.43 +23 44 34.0 18.6 V 703 – Catalina Sky Survey MPS 231846
2007 12 04.23102 04 35 41.96 +23 44 36.4 18.4 V 703 – Catalina Sky Survey MPS 231846
2007 12 04.23806 04 35 41.46 +23 44 38.4 18.3 V 703 – Catalina Sky Survey MPS 231846
2007 12 04.31634 04 35 35.98 +23 44 59.7 18.1 V G96 – Mt. Lemmon Survey MPS 231846
2007 12 04.32296 04 35 35.55 +23 45 01.4 18.1 V G96 – Mt. Lemmon Survey MPS 231846
2007 12 04.32957 04 35 35.08 +23 45 03.3 18.2 V G96 – Mt. Lemmon Survey MPS 231846
2007 12 04.33616 04 35 34.62 +23 45 05.1 18.2 V G96 – Mt. Lemmon Survey MPS 231846
2007 12 10.25424 04 28 58.57 +24 11 09.2 18.9   704 – Lincoln Laboratory ETS, New Mexico MPS 231362
2007 12 10.26714 04 28 57.70 +24 11 13.2 19.5   704 – Lincoln Laboratory ETS, New Mexico MPS 231362
2007 12 10.29292 04 28 55.95 +24 11 19.2 19.8   704 – Lincoln Laboratory ETS, New Mexico MPS 231362
2007 12 10.30633 04 28 55.03 +24 11 22.9 19.7   704 – Lincoln Laboratory ETS, New Mexico MPS 231362
2007 12 14.25200 04 24 42.93 +24 27 34.0 19.1   704 – Lincoln Laboratory ETS, New Mexico MPS 231362
2007 12 14.26492 04 24 42.06 +24 27 37.4 19.4   704 – Lincoln Laboratory ETS, New Mexico MPS 231362
2007 12 14.27803 04 24 41.19 +24 27 41.2 19.5   704 – Lincoln Laboratory ETS, New Mexico MPS 231362
2007 12 14.29095 04 24 40.41 +24 27 43.3 19.9   704 – Lincoln Laboratory ETS, New Mexico MPS 231362
2007 12 14.30387 04 24 39.60 +24 27 46.7 20.0   704 – Lincoln Laboratory ETS, New Mexico MPS 231362
2007 12 15.38150 04 23 33.10 +24 32 01.4 18.8 V G96 – Mt. Lemmon Survey MPS 231846
2007 12 15.38764 04 23 32.74 +24 32 02.8 18.6 V G96 – Mt. Lemmon Survey MPS 231846
2007 12 15.40036 04 23 31.95 +24 32 05.7 18.7 V G96 – Mt. Lemmon Survey MPS 231846
2007 12 15.40653 04 23 31.56 +24 32 06.9 18.6 V G96 – Mt. Lemmon Survey MPS 231846
2010 05 07.39665 16 16 14.70 -18 26 42.7 19.9 V G96 – Mt. Lemmon Survey MPS 346364
2010 05 07.40146 16 16 14.48 -18 26 43.1 20.0 V G96 – Mt. Lemmon Survey MPS 346364
2010 05 07.40627 16 16 14.23 -18 26 42.4 19.8 V G96 – Mt. Lemmon Survey MPS 346364
2010 05 07.41110 16 16 13.94 -18 26 44.0 20.6 V G96 – Mt. Lemmon Survey MPS 346364
2010 06 11.19105 15 43 41.44 -19 01 29.9 21.1 V G96 – Mt. Lemmon Survey MPS 346364
2010 06 11.19582 15 43 41.23 -19 01 29.9 21.1 V G96 – Mt. Lemmon Survey MPS 346364
2010 06 11.20065 15 43 40.94 -19 01 30.5 21.6 V G96 – Mt. Lemmon Survey MPS 346364
2010 06 11.20544 15 43 40.69 -19 01 30.6 20.9 V G96 – Mt. Lemmon Survey MPS 346364
2011 08 02.66111 23 59 47.83 -23 45 09.7 19.5 V E12 – Siding Spring Survey MPS 400066
2011 08 02.67197 23 59 47.86 -23 45 14.0 20.3 V E12 – Siding Spring Survey MPS 400066
2011 08 02.68270 23 59 47.83 -23 45 18.8 19.9 V E12 – Siding Spring Survey MPS 400066
2011 08 02.69351 23 59 47.79 -23 45 22.6 19.1 V E12 – Siding Spring Survey MPS 400066
2011 09 26.57231 23 24 16.48 -28 44 17.8 19.5 V E12 – Siding Spring Survey MPS 394255
2011 09 26.58946 23 24 15.66 -28 44 17.3 19.4 V E12 – Siding Spring Survey MPS 394255
2011 09 26.60657 23 24 14.76 -28 44 17.3 19.3 V E12 – Siding Spring Survey MPS 394255
2011 09 26.62367 23 24 13.82 -28 44 16.6 19.2 V E12 – Siding Spring Survey MPS 394255
2011 10 03.35364 23 18 52.522 -28 30 51.96 19.8 r F51 – Pan-STARRS 1, Haleakala MPS 394255
2011 10 03.36543 23 18 52.009 -28 30 49.55 19.8 r F51 – Pan-STARRS 1, Haleakala MPS 394255
2011 10 03.39572 23 18 50.579 -28 30 44.12 20.4 g F51 – Pan-STARRS 1, Haleakala MPS 394255
2011 10 03.40813 23 18 50.016 -28 30 41.58 20.3 g F51 – Pan-STARRS 1, Haleakala MPS 394255
2012 09 27.612080 07 54 33.077 +26 58 40.65 21.4 w F51 – Pan-STARRS 1, Haleakala MPS 433359
2012 09 27.619042 07 54 33.697 +26 58 41.26 21.3 w F51 – Pan-STARRS 1, Haleakala MPS 433359
2012 09 27.623685 07 54 34.108 +26 58 41.60 21.4 w F51 – Pan-STARRS 1, Haleakala MPS 433359
2012 09 27.628354 07 54 34.512 +26 58 41.87 21.4 w F51 – Pan-STARRS 1, Haleakala MPS 433359
2012 11 02.588731 08 39 18.100 +28 04 52.60 20.5 i F51 – Pan-STARRS 1, Haleakala MPS 439537
2012 11 02.600730 08 39 18.771 +28 04 55.09 20.5 i F51 – Pan-STARRS 1, Haleakala MPS 439537
2012 12 10.32671 08 56 46.75 +31 41 32.2 20.5 V 703 – Catalina Sky Survey MPS 447730
2012 12 10.33463 08 56 46.64 +31 41 36.8 21.3 V 703 – Catalina Sky Survey MPS 447730
2012 12 10.34264 08 56 46.71 +31 41 39.3 21.3 V 703 – Catalina Sky Survey MPS 447730
2012 12 10.35049 08 56 46.75 +31 41 44.9 20.9 V 703 – Catalina Sky Survey MPS 447730
2012 12 21.37635 08 53 52.11 +33 16 48.8 20.2 V 703 – Catalina Sky Survey MPS 448500
2012 12 21.38484 08 53 52.11 +33 16 53.1 20.0 V 703 – Catalina Sky Survey MPS 448500
2012 12 21.39338 08 53 51.79 +33 16 58.5 20.6 V 703 – Catalina Sky Survey MPS 448500
2012 12 21.40194 08 53 51.64 +33 17 01.7 21.0 V 703 – Catalina Sky Survey MPS 448500
2012 12 22.13625 08 53 31.37 +33 23 36.2 19.2 R 461 – University of Szeged, Piszkesteto Stn. (Konkol MPS 448744
2012 12 22.14699 08 53 31.00 +33 23 41.6 19.3 R 461 – University of Szeged, Piszkesteto Stn. (Konkol MPS 448744
2012 12 22.15773 08 53 30.72 +33 23 47.5 20.0 R 461 – University of Szeged, Piszkesteto Stn. (Konkol MPS 448744
2012 12 22.16876 08 53 30.43 +33 23 54.7 19.1 R 461 – University of Szeged, Piszkesteto Stn. (Konkol MPS 449578
2012 12 22.17953 08 53 30.07 +33 23 58.2 18.9 R 461 – University of Szeged, Piszkesteto Stn. (Konkol MPS 449578
2012 12 22.19031 08 53 29.83 +33 24 04.4 19.2 R 461 – University of Szeged, Piszkesteto Stn. (Konkol MPS 449578
2013 01 11.53649 08 38 09.248 +36 20 43.74 20.0 r F51 – Pan-STARRS 1, Haleakala MPS 452255
2013 01 11.54768 08 38 08.563 +36 20 48.94 20.1 r F51 – Pan-STARRS 1, Haleakala MPS 452255
2013 01 14.26346 08 35 23.82 +36 41 14.3 20.0 V G96 – Mt. Lemmon Survey MPS 452255
2013 01 14.27301 08 35 23.24 +36 41 18.6 19.8 V G96 – Mt. Lemmon Survey MPS 452255
2013 01 14.28265 08 35 22.59 +36 41 22.8 19.4 V G96 – Mt. Lemmon Survey MPS 452255
2013 01 14.29229 08 35 21.98 +36 41 27.1 19.9 V G96 – Mt. Lemmon Survey MPS 452255
2013 01 15.23292 08 34 23.52 +36 48 12.9 19.8 V 703 – Catalina Sky Survey MPS 452255
2013 01 15.23829 08 34 23.12 +36 48 14.8 19.5 V 703 – Catalina Sky Survey MPS 452255
2013 01 15.24373 08 34 22.83 +36 48 18.0 19.8 V 703 – Catalina Sky Survey MPS 452255
2013 01 15.24917 08 34 22.47 +36 48 20.4 20.2 V 703 – Catalina Sky Survey MPS 452255
2013 01 15.34514 08 34 16.03 +36 49 00.1 19.3 V 703 – Catalina Sky Survey MPS 452255
